Location: Rochester
(43.1610°N, 77.6109°W)
Time: 09:20:07
(UTC-05:00)

CUTE 1.7 + AOD 2 - Pass Details

Date: 18 October 2021
Orbit: 592 x 611 km, 97.6° (Epoch: 04 December)

Event Time Altitude Azimuth Distance (km) Brightness Sun altitude
Rises 05:59:18 0° 5° (N) 2,884 ? -16.9°
Reaches altitude 10° 06:01:35 10° 357° (N) 1,976 ? -16.5°
Maximum altitude 06:05:35 39° 289° (WNW) 916 ? -15.8°
Enters shadow 06:08:24 18° 228° (SW) 1,530 ? -15.3°
